Lapse_Rate
5.3 5.3 5.3 5.4 5.3 5.3 5.3 5.4 5.2 5.2 5.3 5.4 5.3 5.5 5.7 5.7 5.8 5.8 5.9 6.3 6.2 6.3 6.5 6.6 6.7 6.5 6.3 6.1 5.7 5.6 5.0 5.2 5.9 5.7 6.1 6.1 5.9 6.0 5.7 5.7 5.8 5.9 5.7 5.8 6.1
5.4 5.5 5.5 5.5 5.5 5.4 5.4 5.3 5.3 5.2 5.3 5.3 5.3 5.4 5.4 5.8 6.1 6.2 6.0 6.2 6.5 6.5 6.5 6.5 6.5 6.6 6.3 6.2 5.8 5.5 5.2 5.8 5.9 5.8 5.5 5.5 5.7 5.9 5.6 5.6 5.7 6.0 6.0 5.7 5.8
5.4 5.4 5.4 5.5 5.7 5.6 5.5 5.5 5.4 5.2 5.2 5.3 5.4 5.4 5.4 5.6 5.7 6.4 6.4 6.3 6.5 6.3 6.4 6.5 6.3 6.2 6.2 5.9 5.8 5.7 5.6 5.9 5.4 5.6 5.3 5.2 5.4 5.4 5.7 5.8 6.0 6.1 6.3 5.9 5.5
5.8 5.6 5.6 5.6 5.4 5.6 5.4 5.4 5.4 5.3 5.1 5.2 5.4 5.2 5.2 5.4 5.3 6.1 5.8 6.0 6.4 6.3 6.3 5.8 6.2 6.1 5.7 5.7 5.8 5.4 5.7 5.6 5.4 5.2 5.0 5.2 5.0 5.6 5.3 5.7 5.9 5.6 5.9 6.0 5.8
5.8 5.7 5.5 5.6 5.5 5.2 5.2 5.3 5.3 5.2 5.0 5.0 5.1 5.0 5.0 5.0 6.2 5.8 5.9 5.9 6.0 6.1 5.9 6.1 6.0 5.8 5.6 5.5 5.6 5.5 5.6 5.4 5.3 5.1 5.4 5.2 5.1 4.8 5.3 6.0 5.5 5.5 5.5 5.8 5.8
6.0 5.8 5.6 5.4 5.2 5.0 4.8 5.0 5.2 5.1 5.0 5.0 4.9 4.9 5.0 5.2 5.9 5.8 5.6 5.8 5.7 6.0 6.1 6.1 5.7 5.3 5.2 5.3 5.5 5.5 5.4 5.3 5.1 5.2 5.2 5.0 4.8 4.3 5.4 5.7 5.7 5.6 5.7 5.6 5.8
6.2 6.2 5.7 5.5 5.2 5.3 5.0 5.0 5.1 5.1 4.9 4.7 4.6 4.7 4.9 5.2 5.3 5.5 5.4 5.6 5.5 5.6 5.7 5.4 5.4 5.3 5.1 5.0 5.1 5.3 5.0 4.9 5.2 5.4 4.8 4.7 4.4 4.8 4.9 5.7 5.8 5.6 5.6 5.9 5.8
6.0 6.0 5.9 5.7 5.6 5.5 5.0 4.7 5.1 4.7 4.6 4.5 4.6 4.2 4.6 4.7 5.2 5.6 5.4 5.1 5.1 5.6 5.4 5.1 5.0 4.8 4.9 4.7 4.8 5.0 4.6 4.6 5.0 5.1 4.8 4.3 4.0 4.7 5.5 5.2 5.2 5.7 5.8 5.6 6.1
5.9 6.0 6.0 5.7 5.6 5.4 5.0 4.8 4.9 4.9 4.8 4.6 4.8 4.7 4.6 4.9 5.0 5.4 5.8 6.0 5.5 4.8 5.0 4.8 4.4 4.7 4.5 4.3 4.9 4.6 4.5 4.5 4.6 4.9 4.8 4.5 4.2 4.9 5.4 5.3 5.4 5.6 5.8 6.0 6.3
6.0 6.1 6.0 6.0 5.8 5.4 5.0 4.8 4.8 4.4 4.6 4.7 4.6 4.9 5.3 4.9 5.0 5.4 5.9 6.2 5.5 4.9 4.7 4.4 4.3 4.5 4.0 4.6 4.9 5.0 4.5 4.4 4.4 4.9 4.8 4.4 4.4 4.8 5.8 5.8 6.0 6.1 6.1 6.2 6.6
6.2 6.1 6.1 6.2 6.0 5.3 5.1 4.7 5.3 5.7 5.9 6.0 5.7 6.2 6.5 6.6 5.9 5.5 5.4 5.8 5.9 4.8 4.6 4.8 4.6 4.0 5.1 5.4 4.7 4.5 4.6 4.3 4.6 5.4 4.4 4.7 4.5 5.4 6.3 6.3 6.5 6.7 6.6 6.6 6.6
6.4 6.4 6.3 6.0 5.8 5.7 5.4 6.0 5.8 6.1 6.0 6.2 6.3 6.9 6.9 6.3 6.4 5.5 5.4 4.9 5.5 5.5 5.4 4.7 4.5 4.8 5.3 5.1 4.5 4.5 4.4 4.5 4.8 5.1 4.5 4.9 5.2 6.3 6.8 6.9 6.8 6.6 6.5 6.5 6.4
6.5 6.4 6.3 6.0 6.0 6.1 6.5 6.0 6.1 6.4 6.3 6.5 6.5 6.6 7.1 6.7 6.8 6.6 6.1 4.5 5.1 5.2 5.1 5.2 5.3 5.5 5.2 5.3 4.8 4.7 4.6 5.3 5.3 5.3 5.3 5.2 5.5 6.7 6.9 6.8 6.7 6.4 6.4 6.4 6.2
6.5 6.3 6.4 6.7 6.3 6.4 6.4 6.6 6.2 6.4 6.6 6.6 6.7 7.0 7.1 6.8 6.6 6.5 6.1 5.8 4.5 4.9 4.8 5.0 4.9 5.2 5.2 5.2 5.1 4.8 5.6 5.8 5.6 5.4 5.7 5.4 5.5 5.9 6.8 6.9 6.5 6.5 6.4 6.3 6.2
6.4 6.2 6.4 6.1 6.2 6.2 6.4 6.1 6.3 6.2 6.5 7.1 6.5 6.4 6.3 6.7 6.6 6.7 6.2 5.2 5.5 5.2 4.7 5.1 5.4 5.8 5.4 5.5 5.8 5.5 6.2 6.1 6.2 6.3 5.8 5.8 6.0 5.7 6.5 6.9 6.7 6.7 6.4 6.3 6.2
5.9 5.8 5.8 5.9 6.3 6.4 6.4 6.1 6.4 6.3 5.5 6.9 6.5 6.7 6.9 6.9 6.5 6.6 6.0 5.2 5.7 5.6 6.0 6.0 5.9 5.9 6.0 6.1 6.4 6.5 6.5 6.6 6.6 6.5 6.0 6.4 6.5 6.0 6.8 6.7 6.5 6.4 6.4 6.2 6.3
6.2 6.1 6.1 6.0 5.9 6.0 6.2 6.0 5.9 5.5 6.2 6.6 6.4 6.8 6.7 6.6 6.4 6.5 6.3 5.7 5.9 5.8 5.6 5.9 6.0 6.1 6.2 6.5 6.6 6.8 6.9 7.4 7.3 6.9 7.0 7.1 6.4 6.8 7.0 6.6 6.5 6.4 6.2 6.2 6.2
6.0 5.6 5.4 5.6 5.4 5.8 6.0 6.0 5.1 5.6 6.0 6.6 6.5 6.7 6.6 7.0 6.3 6.5 6.8 6.2 6.2 6.2 6.4 6.7 6.6 6.4 6.9 7.3 7.7 7.9 7.7 8.1 7.6 7.6 7.5 6.7 6.6 6.8 6.7 6.5 6.3 6.3 6.2 6.3 6.0
6.0 5.9 6.0 5.9 5.9 5.7 5.6 5.0 5.2 5.2 5.6 6.2 6.3 6.1 6.4 6.6 6.8 6.6 6.5 6.5 6.4 6.6 7.0 7.5 7.5 7.5 7.8 7.9 8.3 8.0 7.6 7.8 7.7 7.1 7.4 7.4 7.0 6.9 6.5 6.3 6.3 6.3 6.4 6.3 6.3
6.0 5.7 5.6 5.6 5.4 4.8 4.7 4.8 5.2 5.1 5.5 5.9 6.1 5.9 6.2 6.8 6.9 6.8 6.6 6.4 6.5 7.2 7.7 8.2 7.8 7.7 7.7 8.1 8.3 8.2 7.8 7.5 7.4 7.6 7.6 7.3 6.9 6.7 6.3 6.0 6.1 6.4 6.3 6.4 6.7
5.5 5.3 5.2 5.0 4.9 4.5 4.3 4.6 5.0 5.0 5.0 5.4 5.6 5.6 5.6 6.8 6.8 5.9 5.7 6.0 6.6 7.1 8.0 8.2 8.3 7.7 7.7 7.7 7.8 7.7 7.7 7.7 7.7 7.1 7.6 7.4 6.9 5.7 6.0 6.0 6.2 6.2 6.3 6.5 7.3
5.3 5.0 4.9 4.5 5.0 4.8 4.6 4.7 5.0 4.9 4.9 5.1 5.6 5.9 6.0 6.5 6.8 6.7 6.1 6.2 6.8 6.8 7.3 7.8 7.9 7.7 7.1 7.4 7.6 7.6 7.6 7.5 7.6 7.0 6.2 6.1 6.4 5.6 6.2 6.3 6.2 6.1 6.3 6.7 7.1
5.1 4.9 4.6 4.7 4.9 4.9 4.7 4.8 5.0 4.8 5.3 5.9 5.8 5.9 6.1 6.3 7.0 6.6 6.5 6.7 7.0 7.2 7.2 7.3 7.5 7.5 7.1 6.8 6.8 6.9 6.7 6.8 6.8 6.4 5.9 6.4 6.4 6.0 6.4 6.5 6.2 5.6 5.6 6.4 7.1
4.6 4.5 4.0 4.3 4.5 4.8 5.0 4.9 4.9 5.2 6.1 6.5 6.5 6.1 6.0 6.6 6.8 6.8 6.8 6.4 6.8 6.8 6.9 7.3 7.6 7.6 7.6 7.0 6.7 6.5 6.3 6.2 5.9 5.4 5.7 5.8 6.2 6.6 6.5 6.0 5.7 6.2 6.1 6.3 6.9
4.5 4.6 5.1 4.9 5.0 5.2 5.1 5.0 5.4 5.8 6.4 6.8 6.6 6.3 6.4 6.7 7.0 7.0 7.1 7.1 6.6 6.5 6.8 6.9 6.9 7.1 7.0 6.6 6.3 6.2 6.4 6.0 5.6 5.7 4.9 5.6 5.2 6.1 6.3 6.0 5.7 6.2 6.1 5.9 6.2
4.9 5.2 5.2 5.5 5.4 5.4 5.5 6.0 6.3 6.8 6.7 6.8 6.7 6.7 6.8 6.9 7.1 6.9 6.9 6.4 6.5 6.6 6.6 6.7 6.2 5.9 6.0 5.9 5.8 5.8 6.5 6.4 6.2 6.1 5.6 5.7 5.7 6.7 6.0 5.9 6.1 6.2 6.2 6.1 6.2
5.3 5.7 5.8 5.9 5.9 6.1 6.4 6.9 6.9 6.9 7.0 6.9 6.8 6.7 6.5 6.5 6.4 6.4 6.4 6.6 6.7 6.5 6.2 6.0 5.8 5.5 5.5 5.6 5.5 5.7 6.6 6.7 6.6 6.6 6.5 6.1 6.2 6.3 6.5 6.5 6.2 6.5 5.8 6.3 5.8
Wind_Speed
20 18 17 14 13 13 11 8 8 8 8 10 12 14 17 18 19 2 6 6 4 7 9 7 3 5 3 4 3 3 4 7 7 7 4 2 2 1 2 7 3 2 12 12 14
23 21 20 17 16 14 11 8 7 8 10 12 13 16 17 18 5 8 10 6 7 11 5 8 6 6 3 3 4 5 5 10 7 7 4 4 3 7 5 9 11 16 8 10 11
26 23 22 20 18 15 12 8 6 6 8 9 13 16 19 16 5 4 4 11 13 7 3 2 5 3 4 3 6 6 8 6 5 9 6 5 7 5 10 14 11 13 15 14 11
26 25 24 22 20 15 12 9 6 5 6 8 11 14 18 4 6 2 4 14 13 8 6 6 4 5 4 7 6 5 7 9 4 9 8 12 11 14 11 17 15 14 14 10 13
29 28 26 24 21 17 12 8 5 4 5 7 9 11 5 2 9 4 9 12 9 8 8 8 7 6 6 5 5 9 6 7 9 8 9 9 14 14 12 17 13 9 10 11 9
31 29 27 25 22 18 14 10 6 1 4 7 8 7 3 8 5 1 6 8 7 7 8 8 9 8 4 5 6 5 8 9 7 11 6 8 8 7 12 11 9 6 8 8 9
31 29 27 24 23 19 15 10 4 1 4 7 5 2 8 16 2 2 2 4 5 8 7 7 6 7 6 3 5 4 7 6 8 7 8 5 7 8 14 5 6 13 10 10 8
33 28 26 24 22 19 15 10 6 5 6 8 4 2 9 9 15 15 11 9 5 10 3 4 5 4 4 2 1 3 1 4 1 6 1 8 7 9 3 4 13 12 11 9 13
30 29 27 26 26 23 18 12 5 2 9 7 3 6 12 6 7 12 14 12 12 6 3 2 4 4 4 5 3 3 7 5 4 6 4 6 2 8 10 10 12 11 11 10 8
28 28 25 28 27 25 18 11 2 5 6 3 3 1 7 5 3 3 7 14 7 11 5 6 5 6 6 9 10 7 6 5 4 3 3 8 13 15 14 10 12 11 6 4 9
25 25 27 29 30 28 15 6 3 3 7 12 11 7 4 1 4 3 2 10 6 7 12 6 8 16 17 14 9 3 3 7 7 9 4 10 10 13 14 7 11 4 1 4 7
22 25 31 32 31 26 10 4 2 2 7 19 19 18 14 6 1 5 12 6 8 14 15 6 19 14 11 11 10 10 10 11 10 10 7 10 13 14 12 6 3 4 1 4 8
23 29 31 30 28 12 7 7 6 0 3 8 11 14 15 15 10 14 13 5 11 10 16 16 3 17 16 11 10 8 10 7 9 4 6 6 6 2 2 4 6 5 2 3 7
23 31 33 31 10 7 4 6 4 3 3 7 8 9 10 9 11 20 10 10 1 14 8 10 11 10 14 15 11 13 13 14 9 3 3 3 5 3 4 2 5 1 3 7 11
28 32 30 5 11 4 5 7 6 1 3 2 5 1 9 15 1 12 22 4 19 11 7 10 6 13 13 12 13 8 9 11 7 5 2 3 5 1 3 4 4 3 6 9 12
34 28 18 7 3 5 12 12 3 5 7 4 5 6 8 16 5 5 18 12 6 7 6 11 3 6 7 9 17 5 6 4 2 3 6 12 10 4 4 4 2 2 7 10 14
24 17 8 3 5 4 5 4 5 5 2 2 4 7 9 10 12 9 17 12 7 10 10 3 11 2 1 4 6 11 6 4 4 4 5 4 8 9 7 4 2 4 8 12 14
21 14 8 4 5 4 5 3 4 4 6 3 4 5 6 8 6 11 16 8 4 2 5 8 4 1 3 1 4 9 7 4 5 5 2 3 6 2 7 11 11 9 8 11 15
17 2 4 3 7 2 3 3 5 5 6 7 4 4 3 6 3 6 4 3 3 2 2 4 3 3 7 4 1 4 4 1 2 1 3 5 3 5 11 9 8 9 10 12 14
3 2 1 5 11 2 2 3 3 1 3 3 3 5 3 1 3 4 3 3 3 6 1 2 4 2 3 1 5 2 3 3 1 4 7 4 4 2 9 8 8 11 11 11 12
2 2 1 11 4 1 2 4 3 4 3 5 4 1 3 4 3 5 3 4 6 3 3 2 2 1 1 5 2 3 2 4 2 1 3 4 2 2 2 4 4 6 7 9 12
2 3 1 2 2 2 2 4 3 2 2 7 5 4 1 5 4 6 4 3 2 1 3 1 2 3 3 4 3 1 2 2 2 4 1 3 4 3 5 3 3 4 6 8 10
2 2 3 1 2 3 3 5 2 2 4 1 3 3 2 2 4 5 5 2 3 2 3 2 1 3 2 1 2 5 4 5 3 2 4 4 1 6 6 3 4 4 5 8 11
2 3 1 1 2 1 4 5 4 2 3 3 4 5 1 2 6 4 4 4 4 5 10 3 2 1 4 2 3 4 4 3 3 3 3 10 15 15 15 8 3 5 6 7 11
1 3 4 5 6 7 2 8 7 5 2 2 1 3 4 2 3 4 3 3 6 5 4 2 2 1 1 3 2 3 8 7 7 8 7 8 16 19 16 13 4 2 5 9 11
3 3 2 4 6 11 6 6 10 4 2 2 3 1 3 3 1 4 5 2 2 4 2 3 3 2 3 6 6 9 12 10 9 10 13 16 21 19 10 8 7 5 5 7 9
1 1 1 1 4 5 4 4 5 7 3 4 9 7 9 4 4 4 4 5 4 4 2 2 4 3 2 1 3 8 8 9 2 5 9 12 16 12 5 8 5 6 5 6 8
Wind_Direction
239 237 239 238 244 252 266 273 285 299 311 318 319 318 318 318 318 276 252 222 205 234 163 131 108 116 97 116 122 148 191 227 233 198 246 207 267 265 319 287 305 286 304 288 307
239 236 239 237 235 232 241 257 276 297 313 322 322 321 318 322 301 252 247 209 195 149 141 154 144 137 104 142 164 192 211 225 205 207 232 274 262 301 290 288 290 294 284 279 296
237 235 235 234 230 224 222 231 253 285 308 322 323 325 320 324 299 237 204 195 189 178 136 137 120 130 156 166 186 180 235 211 215 227 243 255 278 279 278 280 264 286 297 303 306
238 234 229 228 227 220 218 219 238 269 309 323 326 329 320 301 282 183 130 157 170 167 133 131 133 153 192 203 189 227 233 228 225 235 248 256 274 270 258 266 265 270 283 287 297
234 229 228 224 221 213 202 205 202 281 317 327 332 334 338 247 252 140 133 153 151 158 175 162 164 159 201 217 186 228 244 233 233 248 251 257 253 257 263 262 273 275 282 284 286
241 229 224 222 216 203 187 180 180 192 334 328 335 336 276 234 253 122 195 160 190 184 181 168 191 192 201 215 216 202 221 252 253 248 237 232 253 174 253 261 279 298 285 288 293
241 228 222 217 210 189 182 168 135 60 345 322 331 300 254 247 242 300 348 214 198 195 177 205 175 175 167 224 219 253 272 272 232 237 235 179 243 224 252 298 299 304 301 299 301
252 229 212 207 196 175 161 136 108 41 321 323 298 164 257 253 262 260 247 250 240 214 216 184 172 210 184 263 313 253 232 256 236 164 214 186 240 278 287 155 311 307 297 311 320
255 223 203 194 175 160 149 134 116 270 272 265 245 142 265 275 252 251 213 223 202 214 229 222 157 196 151 186 258 220 253 221 286 200 174 201 200 265 284 292 288 283 300 320 325
243 218 200 179 164 146 133 113 102 261 251 219 263 313 249 240 228 232 194 203 180 187 201 186 177 189 171 186 219 214 225 228 238 166 158 272 264 265 270 262 264 284 308 336 344
230 201 179 169 154 143 121 118 133 210 224 198 205 212 255 297 248 231 154 169 196 190 201 197 198 206 201 210 214 182 225 263 261 258 285 254 261 268 273 259 270 282 32 14 353
201 181 169 162 154 148 127 162 180 43 266 229 249 250 263 15 45 323 139 180 200 205 196 200 233 210 198 187 203 224 244 260 275 275 212 277 288 268 260 254 203 151 65 5 352
178 165 160 153 141 131 130 152 104 316 289 257 209 236 230 199 228 215 180 185 205 203 194 208 246 199 184 183 185 211 216 232 240 316 256 287 278 205 111 140 151 176 78 37 355
167 152 144 139 111 130 134 189 186 17 4 260 211 244 190 152 235 221 208 171 241 214 190 232 222 152 189 206 191 236 210 235 243 243 255 351 298 261 170 166 200 146 49 8 3
135 129 127 45 127 146 120 142 136 228 276 163 166 278 168 179 299 207 184 197 195 172 169 219 212 207 215 203 181 220 202 203 215 215 230 211 267 273 250 193 167 77 29 19 3
105 105 102 74 41 95 99 106 107 69 234 301 154 153 146 210 269 88 178 225 214 177 221 221 177 177 212 212 190 200 175 147 93 160 247 235 215 184 191 179 191 32 42 15 0
101 95 75 86 119 175 115 136 86 188 2 221 222 175 190 186 226 163 170 174 178 188 204 183 222 225 195 179 165 193 155 194 197 194 243 179 194 258 265 199 102 68 28 12 4
109 105 123 103 171 179 132 95 171 201 267 331 312 165 192 151 207 156 158 174 58 104 163 201 174 11 335 235 177 174 189 194 213 194 160 156 225 212 51 84 88 65 40 16 3
112 58 126 179 166 171 158 163 183 203 294 327 33 244 205 173 124 115 105 109 53 37 144 153 108 331 54 43 346 157 184 104 171 142 228 219 223 111 66 88 50 35 25 11 358
98 121 181 154 149 150 173 171 228 287 313 273 85 9 289 223 134 109 115 16 97 18 317 121 119 355 323 330 52 63 120 148 47 235 246 203 231 234 9 15 18 13 6 357 351
75 103 216 132 156 107 205 207 333 332 342 6 101 174 293 328 81 60 49 50 11 353 55 93 43 98 263 26 -0 359 95 61 73 224 255 264 206 122 52 35 21 6 353 350 351
156 121 71 144 141 170 187 178 247 300 274 57 86 280 350 346 61 130 135 77 355 250 53 13 93 108 65 334 223 44 82 76 208 188 302 292 227 119 134 90 26 24 3 355 359
113 81 348 63 169 187 258 197 220 222 70 213 75 252 358 57 111 117 118 87 154 90 135 184 79 111 101 100 49 82 70 87 91 99 219 243 227 148 140 59 15 1 356 357 1
116 125 90 179 288 254 207 188 162 76 99 139 168 265 164 67 34 121 105 49 24 83 63 87 118 216 192 99 109 155 194 186 132 162 239 240 280 274 294 316 335 348 350 16 13
158 198 170 176 238 229 268 184 173 163 157 173 79 233 173 127 102 107 98 93 43 15 48 65 122 26 29 132 170 229 248 220 207 223 235 282 279 280 283 299 103 51 6 26 21
161 164 164 173 179 192 238 184 172 121 145 155 191 144 120 100 34 152 123 105 118 44 71 12 116 108 267 250 241 253 259 269 257 262 265 278 279 281 269 134 96 67 31 31 27
213 263 156 142 152 159 198 148 153 125 34 147 141 107 90 104 88 82 68 86 116 122 103 81 135 158 193 104 289 265 264 223 195 248 275 282 306 316 152 110 89 84 44 37 29